JST703 YMML-YMHB

Flight info

Callsign JST703
Flight time 1h 0m
Altitude 39000
Route SUNTI4/27 SUNTI H169 IRSOM V33 TASUM
Aircraft A320/M-SDE3FGHIRWY/LB1

Departure

Time 2026-04-21 07:56
Airport Melbourne Airport (YMML)

Arrival

Time 2026-04-21 08:56
Airport Hobart International Airport (YMHB)
Time Latitude Longitude Altitude Speed Heading
2026-04-21 06:38 -37.67653 144.84710 375 ft 0 kts 351°
2026-04-21 07:39 -37.67668 144.84712 374 ft 3 kts 352°
2026-04-21 07:39 -37.67690 144.84716 374 ft 3 kts 357°
2026-04-21 07:39 -37.67707 144.84716 373 ft 0 kts
2026-04-21 07:42 -37.67704 144.84716 373 ft 2 kts 358°
2026-04-21 07:43 -37.67697 144.84695 361 ft 5 kts 265°
2026-04-21 07:43 -37.67741 144.84647 370 ft 11 kts 223°
2026-04-21 07:43 -37.67816 144.84566 369 ft 17 kts 238°
2026-04-21 07:43 -37.67837 144.84408 363 ft 15 kts 274°
2026-04-21 07:44 -37.67753 144.84370 367 ft 13 kts 358°
2026-04-21 07:44 -37.67663 144.84355 370 ft 13 kts 351°
2026-04-21 07:44 -37.67572 144.84338 373 ft 13 kts 352°
2026-04-21 07:44 -37.67478 144.84321 376 ft 14 kts 351°
2026-04-21 07:45 -37.67378 144.84302 378 ft 15 kts 351°
2026-04-21 07:45 -37.67272 144.84282 380 ft 16 kts 351°
2026-04-21 07:45 -37.67158 144.84261 383 ft 17 kts 352°
2026-04-21 07:45 -37.67040 144.84239 385 ft 18 kts 352°
2026-04-21 07:46 -37.66914 144.84216 388 ft 18 kts 351°
2026-04-21 07:46 -37.66788 144.84192 392 ft 18 kts 351°
2026-04-21 07:46 -37.66743 144.84184 389 ft 5 kts 355°
2026-04-21 07:46 -37.66717 144.84179 393 ft 3 kts 313°
2026-04-21 07:47 -37.66706 144.84137 394 ft 8 kts 272°
2026-04-21 07:47 -37.66721 144.84040 395 ft 14 kts 268°
2026-04-21 07:47 -37.66662 144.83954 396 ft 14 kts 350°
2026-04-21 07:47 -37.66567 144.83941 402 ft 14 kts 354°
2026-04-21 07:48 -37.66475 144.83925 404 ft 13 kts 351°
2026-04-21 07:48 -37.66390 144.83913 410 ft 12 kts
2026-04-21 07:48 -37.66340 144.83995 410 ft 14 kts 91°
2026-04-21 07:48 -37.66352 144.84128 410 ft 17 kts 97°
2026-04-21 07:49 -37.66359 144.84290 409 ft 20 kts 95°
2026-04-21 07:49 -37.66369 144.84476 410 ft 22 kts 94°
2026-04-21 07:49 -37.66379 144.84637 410 ft 17 kts 94°
2026-04-21 07:49 -37.66372 144.84774 407 ft 14 kts 54°
2026-04-21 07:50 -37.66340 144.84786 412 ft 0 kts
2026-04-21 07:52 -37.66339 144.84786 412 ft 1 kts
2026-04-21 07:52 -37.66320 144.84788 411 ft 4 kts
2026-04-21 07:53 -37.66280 144.84792 410 ft 7 kts
2026-04-21 07:53 -37.66229 144.84780 411 ft 9 kts 310°
2026-04-21 07:53 -37.66224 144.84750 413 ft 0 kts 273°
2026-04-21 07:55 -37.66223 144.84734 413 ft 6 kts 273°
2026-04-21 07:55 -37.66200 144.84362 408 ft 81 kts 275°
2026-04-21 07:55 -37.66144 144.83390 414 ft 138 kts 275°
2026-04-21 07:55 -37.66065 144.82042 739 ft 153 kts 279°
2026-04-21 07:56 -37.65951 144.80757 1451 ft 147 kts 279°
2026-04-21 07:56 -37.65871 144.79439 2109 ft 153 kts 278°
2026-04-21 07:56 -37.65798 144.78085 2521 ft 165 kts 277°
2026-04-21 07:56 -37.65710 144.76519 2845 ft 188 kts 276°
2026-04-21 07:57 -37.65611 144.74800 3118 ft 212 kts 277°
2026-04-21 07:57 -37.65498 144.72833 3550 ft 237 kts 276°
2026-04-21 07:57 -37.65542 144.70655 4087 ft 261 kts 256°
2026-04-21 07:57 -37.66501 144.68692 5039 ft 269 kts 223°
2026-04-21 07:58 -37.68049 144.67348 6074 ft 270 kts 213°
2026-04-21 07:58 -37.69650 144.66094 7069 ft 272 kts 213°
2026-04-21 07:58 -37.71300 144.64884 7958 ft 277 kts 204°
2026-04-21 07:58 -37.73141 144.64251 8825 ft 282 kts 186°
2026-04-21 07:59 -37.75104 144.64402 9734 ft 286 kts 167°
2026-04-21 07:59 -37.76960 144.65349 10520 ft 294 kts 151°
2026-04-21 07:59 -37.78798 144.66707 10819 ft 317 kts 150°
2026-04-21 07:59 -37.80736 144.68165 11350 ft 329 kts 150°
2026-04-21 08:00 -37.82714 144.69662 12074 ft 334 kts 150°
2026-04-21 08:00 -37.84717 144.71179 12815 ft 337 kts 150°
2026-04-21 08:00 -37.86743 144.72710 13567 ft 341 kts 150°
2026-04-21 08:00 -37.88766 144.74237 14267 ft 345 kts 150°
2026-04-21 08:01 -37.90839 144.75797 14925 ft 348 kts 150°
2026-04-21 08:01 -37.92929 144.77368 15580 ft 351 kts 150°
2026-04-21 08:01 -37.95035 144.78954 16216 ft 354 kts 150°
2026-04-21 08:02 -37.99297 144.82165 17500 ft 360 kts 150°
2026-04-21 08:02 -38.01458 144.83796 18148 ft 363 kts 150°
2026-04-21 08:02 -38.03637 144.85443 18766 ft 366 kts 150°
2026-04-21 08:02 -38.05092 144.86542 19143 ft 368 kts 150°
2026-04-21 08:03 -38.07300 144.88213 19719 ft 371 kts 150°
2026-04-21 08:03 -38.10250 144.90452 20488 ft 375 kts 150°
2026-04-21 08:03 -38.12497 144.92160 21054 ft 378 kts 150°
2026-04-21 08:03 -38.14756 144.93876 21601 ft 381 kts 150°
2026-04-21 08:04 -38.17037 144.95608 22147 ft 383 kts 151°
2026-04-21 08:04 -38.19338 144.97352 22662 ft 386 kts 151°
2026-04-21 08:04 -38.20873 144.98514 23003 ft 388 kts 151°
2026-04-21 08:04 -38.23195 145.00274 23534 ft 391 kts 151°
2026-04-21 08:05 -38.26308 145.02637 24170 ft 394 kts 151°
2026-04-21 08:05 -38.28669 145.04436 24598 ft 397 kts 151°
2026-04-21 08:05 -38.31048 145.06250 25024 ft 400 kts 151°
2026-04-21 08:05 -38.33437 145.08076 25440 ft 403 kts 151°
2026-04-21 08:06 -38.35847 145.09918 25856 ft 405 kts 151°
2026-04-21 08:06 -38.37455 145.11145 26134 ft 407 kts 151°
2026-04-21 08:06 -38.39895 145.13006 26566 ft 410 kts 151°
2026-04-21 08:06 -38.42350 145.14881 26964 ft 413 kts 151°
2026-04-21 08:07 -38.45622 145.17388 27507 ft 416 kts 151°
2026-04-21 08:07 -38.48113 145.19291 27907 ft 419 kts 151°
2026-04-21 08:07 -38.49813 145.20571 28167 ft 420 kts 154°
2026-04-21 08:07 -38.53373 145.22484 28676 ft 421 kts 163°
2026-04-21 08:08 -38.55213 145.23290 28938 ft 422 kts 163°
2026-04-21 08:08 -38.57996 145.24510 29328 ft 425 kts 163°
2026-04-21 08:08 -38.60802 145.25743 29721 ft 428 kts 163°
2026-04-21 08:08 -38.63631 145.26989 30158 ft 430 kts 163°
2026-04-21 08:09 -38.66459 145.28237 30548 ft 432 kts 163°
2026-04-21 08:09 -38.70230 145.29901 31059 ft 433 kts 163°
2026-04-21 08:09 -38.72154 145.30752 31279 ft 435 kts 163°
2026-04-21 08:09 -38.75948 145.32431 31734 ft 437 kts 163°
2026-04-21 08:10 -38.77859 145.33276 31957 ft 438 kts 163°
2026-04-21 08:10 -38.80736 145.34550 32439 ft 437 kts 163°
2026-04-21 08:10 -38.83603 145.35824 32922 ft 435 kts 163°
2026-04-21 08:10 -38.86462 145.37094 33402 ft 435 kts 164°
2026-04-21 08:11 -38.90277 145.38788 34036 ft 433 kts 163°
2026-04-21 08:11 -38.92164 145.39627 34357 ft 432 kts 164°
2026-04-21 08:11 -38.95912 145.41295 34926 ft 430 kts 164°
2026-04-21 08:11 -38.97787 145.42127 35164 ft 430 kts 164°
2026-04-21 08:12 -39.00608 145.43381 35553 ft 429 kts 163°
2026-04-21 08:12 -39.03425 145.44635 35917 ft 428 kts 164°
2026-04-21 08:12 -39.06231 145.45884 36280 ft 428 kts 164°
2026-04-21 08:12 -39.09041 145.47135 36618 ft 427 kts 163°
2026-04-21 08:13 -39.12758 145.48791 37095 ft 426 kts 164°
2026-04-21 08:13 -39.14643 145.49634 37335 ft 425 kts 165°
2026-04-21 08:13 -39.17437 145.50883 37654 ft 425 kts 164°
2026-04-21 08:13 -39.20193 145.52116 37985 ft 424 kts 164°
2026-04-21 08:14 -39.22979 145.53365 38312 ft 424 kts 164°
2026-04-21 08:14 -39.25759 145.54616 38648 ft 423 kts 164°
2026-04-21 08:14 -39.28529 145.55863 38948 ft 422 kts 165°
2026-04-21 08:14 -39.31303 145.57111 39193 ft 422 kts 164°
2026-04-21 08:15 -39.34082 145.58361 39313 ft 423 kts 164°
2026-04-21 08:15 -39.39658 145.60870 39343 ft 424 kts 165°
2026-04-21 08:16 -39.45196 145.63371 39343 ft 424 kts 164°
2026-04-21 08:16 -39.50768 145.65879 39348 ft 424 kts 164°
2026-04-21 08:17 -39.56343 145.68406 39360 ft 424 kts 164°
2026-04-21 08:17 -39.61912 145.70934 39355 ft 424 kts 164°
2026-04-21 08:18 -39.67445 145.73445 39366 ft 424 kts 164°
2026-04-21 08:18 -39.73009 145.75976 39375 ft 424 kts 164°
2026-04-21 08:19 -39.78578 145.78516 39374 ft 424 kts 164°
2026-04-21 08:19 -39.84148 145.81062 39384 ft 424 kts 163°
2026-04-21 08:20 -39.89683 145.83590 39386 ft 424 kts 164°
2026-04-21 08:20 -39.95253 145.86144 39380 ft 424 kts 163°
2026-04-21 08:21 -40.00825 145.88701 39383 ft 424 kts 164°
2026-04-21 08:21 -40.06391 145.91274 39399 ft 424 kts 164°
2026-04-21 08:22 -40.11919 145.93840 39396 ft 424 kts 163°
2026-04-21 08:22 -40.17476 145.96413 39394 ft 424 kts 163°
2026-04-21 08:23 -40.23039 145.99000 39396 ft 424 kts 163°
2026-04-21 08:23 -40.28603 146.01588 39397 ft 424 kts 163°
2026-04-21 08:24 -40.34130 146.04170 39397 ft 425 kts 163°
2026-04-21 08:24 -40.39696 146.06770 39402 ft 425 kts 163°
2026-04-21 08:25 -40.45259 146.09381 39402 ft 425 kts 163°
2026-04-21 08:25 -40.50825 146.11994 39412 ft 425 kts 163°
2026-04-21 08:26 -40.56355 146.14593 39407 ft 425 kts 163°
2026-04-21 08:26 -40.61918 146.17216 39408 ft 425 kts 163°
2026-04-21 08:27 -40.67483 146.19848 39414 ft 425 kts 163°
2026-04-21 08:27 -40.73046 146.22478 39420 ft 425 kts 163°
2026-04-21 08:27 -40.75837 146.23800 39217 ft 425 kts 163°
2026-04-21 08:28 -40.78577 146.25098 38972 ft 424 kts 163°
2026-04-21 08:28 -40.81345 146.26410 38688 ft 424 kts 163°
2026-04-21 08:28 -40.84118 146.27727 38411 ft 423 kts 163°
2026-04-21 08:28 -40.86878 146.29041 37905 ft 422 kts 163°
2026-04-21 08:29 -40.89646 146.30354 37348 ft 421 kts 162°
2026-04-21 08:29 -40.92402 146.31661 36853 ft 420 kts 162°
2026-04-21 08:29 -40.95140 146.32959 36460 ft 416 kts 162°
2026-04-21 08:29 -40.97857 146.34250 36028 ft 414 kts 162°
2026-04-21 08:30 -41.00554 146.35537 35598 ft 411 kts 162°
2026-04-21 08:30 -41.03201 146.36803 35178 ft 409 kts 162°
2026-04-21 08:30 -41.05871 146.38077 34729 ft 407 kts 162°
2026-04-21 08:30 -41.08525 146.39346 34264 ft 404 kts 162°
2026-04-21 08:31 -41.11157 146.40607 33797 ft 401 kts 162°
2026-04-21 08:31 -41.13772 146.41859 33364 ft 398 kts 162°
2026-04-21 08:31 -41.16368 146.43103 32891 ft 396 kts 161°
2026-04-21 08:31 -41.18878 146.44585 32439 ft 394 kts 156°
2026-04-21 08:32 -41.21314 146.46128 31995 ft 392 kts 156°
2026-04-21 08:32 -41.23770 146.47679 31558 ft 390 kts 157°
2026-04-21 08:32 -41.26211 146.49220 31135 ft 388 kts 157°
2026-04-21 08:32 -41.28648 146.50759 30697 ft 386 kts 157°
2026-04-21 08:33 -41.31068 146.52288 30237 ft 384 kts 157°
2026-04-21 08:33 -41.33473 146.53808 29821 ft 381 kts 157°
2026-04-21 08:33 -41.35856 146.55313 29420 ft 378 kts 156°
2026-04-21 08:33 -41.38216 146.56806 29031 ft 374 kts 156°
2026-04-21 08:34 -41.40527 146.58269 28647 ft 371 kts 156°
2026-04-21 08:34 -41.42850 146.59740 28260 ft 368 kts 156°
2026-04-21 08:34 -41.45154 146.61199 27862 ft 365 kts 156°
2026-04-21 08:34 -41.47440 146.62648 27472 ft 363 kts 156°
2026-04-21 08:35 -41.49705 146.64087 27072 ft 360 kts 156°
2026-04-21 08:35 -41.51965 146.65522 26669 ft 358 kts 156°
2026-04-21 08:35 -41.54209 146.66950 26263 ft 356 kts 156°
2026-04-21 08:35 -41.56443 146.68373 25845 ft 355 kts 156°
2026-04-21 08:36 -41.58662 146.69789 25427 ft 354 kts 156°
2026-04-21 08:36 -41.60850 146.71185 25000 ft 353 kts 156°
2026-04-21 08:36 -41.63063 146.72600 24568 ft 352 kts 156°
2026-04-21 08:36 -41.65272 146.74012 24136 ft 352 kts 156°
2026-04-21 08:37 -41.67479 146.75426 23650 ft 351 kts 156°
2026-04-21 08:37 -41.69675 146.76840 23210 ft 349 kts 155°
2026-04-21 08:37 -41.71855 146.78248 22775 ft 347 kts 155°
2026-04-21 08:37 -41.74020 146.79652 22353 ft 345 kts 156°
2026-04-21 08:38 -41.76172 146.81050 21922 ft 343 kts 155°
2026-04-21 08:38 -41.78286 146.82421 21497 ft 341 kts 155°
2026-04-21 08:38 -41.80419 146.83805 21069 ft 340 kts 155°
2026-04-21 08:38 -41.82543 146.85183 20642 ft 339 kts 154°
2026-04-21 08:39 -41.84662 146.86558 20212 ft 338 kts 155°
2026-04-21 08:39 -41.86776 146.87929 19789 ft 337 kts 154°
2026-04-21 08:39 -41.88889 146.89295 19363 ft 337 kts 154°
2026-04-21 08:39 -41.90999 146.90660 18942 ft 337 kts 154°
2026-04-21 08:40 -41.93104 146.92028 18480 ft 337 kts 154°
2026-04-21 08:40 -41.95181 146.93383 18031 ft 336 kts 154°
2026-04-21 08:40 -41.97276 146.94750 17618 ft 334 kts 153°
2026-04-21 08:40 -41.99362 146.96111 17198 ft 333 kts 153°
2026-04-21 08:41 -42.01440 146.97467 16781 ft 331 kts 153°
2026-04-21 08:41 -42.03511 146.98821 16372 ft 331 kts 153°
2026-04-21 08:41 -42.05582 147.00175 15952 ft 330 kts 153°
2026-04-21 08:41 -42.07641 147.01521 15538 ft 329 kts 153°
2026-04-21 08:42 -42.09698 147.02870 15126 ft 329 kts 153°
2026-04-21 08:42 -42.11751 147.04221 14715 ft 328 kts 152°
2026-04-21 08:42 -42.13775 147.05553 14306 ft 328 kts 152°
2026-04-21 08:42 -42.15822 147.06896 13857 ft 328 kts 152°
2026-04-21 08:43 -42.17954 147.07959 13466 ft 327 kts 166°
2026-04-21 08:43 -42.20161 147.08491 13400 ft 316 kts 169°
2026-04-21 08:43 -42.22327 147.09008 13298 ft 317 kts 168°
2026-04-21 08:43 -42.24535 147.09545 12526 ft 328 kts 168°
2026-04-21 08:44 -42.26795 147.10101 12012 ft 331 kts 168°
2026-04-21 08:44 -42.29050 147.10653 11533 ft 326 kts 168°
2026-04-21 08:44 -42.31234 147.11182 10965 ft 319 kts 168°
2026-04-21 08:44 -42.33376 147.11700 10487 ft 309 kts 169°
2026-04-21 08:45 -42.35469 147.12209 9811 ft 306 kts 168°
2026-04-21 08:45 -42.37559 147.12720 9198 ft 302 kts 168°
2026-04-21 08:45 -42.39589 147.13215 8914 ft 289 kts 168°
2026-04-21 08:45 -42.41568 147.13696 8542 ft 293 kts 169°
2026-04-21 08:46 -42.43585 147.14185 8099 ft 296 kts 169°
2026-04-21 08:46 -42.45612 147.14680 7762 ft 295 kts 169°
2026-04-21 08:46 -42.47640 147.15175 7427 ft 294 kts 169°
2026-04-21 08:46 -42.49577 147.15649 7263 ft 278 kts 169°
2026-04-21 08:47 -42.51446 147.16104 6931 ft 269 kts 169°
2026-04-21 08:47 -42.53212 147.16732 6781 ft 263 kts 156°
2026-04-21 08:47 -42.54874 147.17824 6434 ft 266 kts 151°
2026-04-21 08:47 -42.56507 147.18958 6067 ft 261 kts 151°
2026-04-21 08:48 -42.58119 147.20080 5704 ft 260 kts 151°
2026-04-21 08:48 -42.59727 147.21200 5344 ft 259 kts 151°
2026-04-21 08:48 -42.61270 147.22267 5233 ft 237 kts 151°
2026-04-21 08:48 -42.62667 147.23252 5154 ft 217 kts 146°
2026-04-21 08:49 -42.63779 147.24445 5022 ft 197 kts 131°
2026-04-21 08:49 -42.64717 147.25710 4798 ft 182 kts 131°
2026-04-21 08:49 -42.65581 147.26867 4588 ft 167 kts 131°
2026-04-21 08:49 -42.66387 147.27950 4404 ft 161 kts 131°
2026-04-21 08:50 -42.67161 147.28991 4259 ft 154 kts 130°
2026-04-21 08:50 -42.67918 147.30009 4089 ft 153 kts 131°
2026-04-21 08:50 -42.68674 147.31025 3906 ft 153 kts 130°
2026-04-21 08:50 -42.69429 147.32042 3699 ft 153 kts 130°
2026-04-21 08:51 -42.70172 147.33043 3497 ft 152 kts 130°
2026-04-21 08:51 -42.70932 147.34066 3284 ft 151 kts 129°
2026-04-21 08:51 -42.71665 147.35053 3092 ft 150 kts 130°
2026-04-21 08:51 -42.72403 147.36048 2890 ft 149 kts 130°
2026-04-21 08:52 -42.73136 147.37035 2678 ft 147 kts 130°
2026-04-21 08:52 -42.73855 147.38005 2507 ft 144 kts 131°
2026-04-21 08:52 -42.74567 147.38964 2307 ft 143 kts 131°
2026-04-21 08:52 -42.75272 147.39899 2124 ft 140 kts 133°
2026-04-21 08:53 -42.75976 147.40810 1927 ft 139 kts 133°
2026-04-21 08:53 -42.76678 147.41698 1753 ft 139 kts 133°
2026-04-21 08:53 -42.77345 147.42640 1577 ft 137 kts 128°
2026-04-21 08:53 -42.77979 147.43609 1422 ft 137 kts 132°
2026-04-21 08:54 -42.78679 147.44484 1306 ft 136 kts 136°
2026-04-21 08:54 -42.79377 147.45347 1154 ft 135 kts 133°
2026-04-21 08:54 -42.80020 147.46276 821 ft 134 kts 130°
2026-04-21 08:54 -42.80666 147.47167 652 ft 131 kts 133°
2026-04-21 08:55 -42.81307 147.48028 487 ft 131 kts 131°
2026-04-21 08:55 -42.81958 147.48916 358 ft 131 kts 130°
2026-04-21 08:55 -42.82585 147.49771 156 ft 129 kts 127°
2026-04-21 08:55 -42.83211 147.50631 23 ft 120 kts 133°
2026-04-21 08:56 -42.83659 147.51239 23 ft 42 kts 136°
2026-04-21 08:56 -42.83806 147.51265 22 ft 17 kts 208°
2026-04-21 08:56 -42.83849 147.51129 22 ft 18 kts 301°
2026-04-21 08:56 -42.83768 147.51015 23 ft 14 kts 316°
2026-04-21 08:57 -42.83698 147.50923 22 ft 11 kts 316°
2026-04-21 08:57 -42.83674 147.50848 22 ft 10 kts 253°
2026-04-21 08:57 -42.83705 147.50779 24 ft 7 kts 242°
2026-04-21 08:57 -42.83738 147.50711 23 ft 9 kts 234°
2026-04-21 08:58 -42.83741 147.50705 22 ft 0 kts 235°
2026-04-21 08:58 -42.83745 147.50698 22 ft 2 kts 234°